[[{"header":{"parameterUnit":"m.s-1","parameterCategory":1,"la1":30.2991,"la2":30.254,"lo1":-89.0895,"lo2":-89.0444,"dy":0.0017,"dx":0.0017,"nx":28,"ny":28,"refTime":"2025-09-01T03:00:00:Z","depth":0,"parameterNumber":2,"parameterNumberName":"U-component_of_WINDS"},"data":[0,0,0,0,0,0,0,0,0,0,0,0,0,0,0,0,0,0,0,0,0,0,0,0,0,0,0,0,0,0,0,0,0,0,0,0,0,0,0,0,0,0,0,0,0,0,0,0,0,0,0,0,0,0,0,0,0,0,0.6559,0.6557,0,0.6346,0.6343,0.6341,0.6289,0.6291,0.6292,0.6293,0.6072,0.6065,0.6057,0,0,0,0,0,0,0,0,0,0,0,0,0,0.6919,0.6913,0.6559,0.6556,0.6554,0.6346,0.6343,0.634,0.6289,0.6291,0.6292,0.6294,0.6074,0.6066,0.6057,0,0,0,0,0,0,0,0,0,0,0,0,0,0.674,0.6911,0.656,0.6503,0.6496,0.6347,0.6343,0.634,0.6289,0.6291,0.6293,0.6295,0.6077,0.6066,0.6056,0.5946,0,0,0.6023,0.6018,0,0,0,0,0,0,0,0,0.675,0.6727,0.6514,0.6507,0.6498,0.6346,0.6389,0.6208,0.6288,0.6367,0.6293,0.6296,0.6161,0.6143,0.6099,0.5936,0.5927,0.6022,0.6015,0.601,0.6007,0,0,0,0,0,0,0,0.6763,0.6736,0.6475,0.6511,0.6501,0.6488,0.6465,0.6354,0.6255,0.636,0.6356,0.6332,0.6157,0.6109,0.6093,0.5923,0.6022,0.6012,0.6006,0.6001,0.5659,0.5657,0,0,0,0,0,0,0.6785,0.6746,0.6481,0.6468,0.6632,0.648,0.6454,0.6393,0.6256,0.6237,0.633,0.633,0.6127,0.6106,0.6085,0.5946,0.601,0.6,0.5994,0.5662,0.5658,0.5656,0,0,0,0,0,0,0.6793,0.6762,0.649,0.6606,0.657,0.6471,0.6403,0.6388,0.634,0.6233,0.6215,0.63,0.6128,0.61,0.5981,0.5938,0.5995,0.5986,0.5665,0.5661,0.5657,0.5669,0,0,0,0,0,0,0.6804,0.6765,0.6723,0.6605,0.6564,0.639,0.6401,0.6382,0.6321,0.6319,0.6199,0.6182,0.6127,0.5998,0.597,0.5924,0.5977,0.5668,0.5663,0.5658,0.5671,0.5666,0.566,0,0,0,0,0,0.6817,0.6734,0.6721,0.6689,0.651,0.6388,0.6364,0.6304,0.6318,0.6274,0.6206,0.6185,0.5948,0.5986,0.5955,0.5904,0.567,0.5664,0.5659,0.5674,0.5667,0.5661,0,0,0,0,0,0,0.6847,0.6718,0.6702,0.6579,0.6495,0.6379,0.6322,0.6299,0.6208,0.6209,0.6138,0.6111,0.5996,0.5939,0.5983,0.5791,0.5809,0.5797,0.5832,0.5824,0.5819,0.5833,0.5968,0,0,0,0,0,0.6841,0.6753,0.6644,0.6547,0.6506,0.6422,0.6366,0.6328,0.6237,0.6201,0.6124,0.6036,0.5941,0.588,0.5788,0.5665,0.5637,0.5615,0.561,0.5606,0.5594,0.5523,0.5511,0.5636,0.5636,0.5637,0,0,0.6824,0.6742,0.6691,0.6551,0.6481,0.6391,0.6391,0.6296,0.6228,0.6186,0.6068,0.6009,0.5906,0.5785,0.5727,0.5733,0.5554,0.5598,0.5596,0.5586,0.5516,0.5504,0.5494,0.5632,0.5633,0.5634,0,0,0.6747,0.6678,0.6587,0.6518,0.6414,0.6359,0.6338,0.6226,0.6185,0.6066,0.6032,0.5951,0.579,0.5717,0.566,0.5559,0.5535,0.5531,0.55,0.5431,0.5421,0.5412,0.5373,0.536,0.5521,0.5521,0.5521,0,0.6738,0.6602,0.6544,0.645,0.6389,0.6349,0.6256,0.6192,0.6062,0.602,0.603,0.5827,0.5755,0.5615,0.559,0.5546,0.5518,0.5541,0.5428,0.5418,0.5409,0.537,0.5356,0.5521,0.5521,0.5521,0.5521,0,0.6596,0.6503,0.6442,0.6319,0.6251,0.6159,0.6086,0.6024,0.5993,0.5937,0.5816,0.5729,0.5618,0.5583,0.5551,0.5438,0.5444,0.5442,0.5458,0.5397,0.536,0.5345,0.552,0.552,0.5521,0.5521,0,0,0.6527,0.6375,0.6353,0.6297,0.618,0.6105,0.6012,0.5904,0.5851,0.5765,0.5682,0.5548,0.5546,0.548,0.544,0.5381,0.5303,0.5385,0.5382,0.537,0.517,0.5169,0.5153,0.5289,0.5286,0.5284,0.5177,0,0.6433,0.6263,0.6209,0.6067,0.5979,0.5942,0.586,0.5779,0.5725,0.5641,0.5582,0.5487,0.5492,0.5452,0.5393,0.5325,0.5261,0.5333,0.5209,0.5205,0.5231,0.5134,0.5132,0.5036,0.5163,0.516,0.5159,0,0.6298,0.621,0.6059,0.5954,0.5915,0.5842,0.5738,0.5661,0.5568,0.5533,0.5461,0.5426,0.5326,0.5352,0.5211,0.5261,0.5208,0.5168,0.5163,0.5145,0.5175,0.511,0.5004,0.4988,0.5136,0.5138,0.5139,0,0.6258,0.6102,0.5992,0.5945,0.582,0.5769,0.5715,0.5624,0.5563,0.5474,0.5433,0.5333,0.5277,0.52,0.5138,0.5164,0.5002,0.5024,0.4968,0.4969,0.4931,0.4933,0.4811,0.4905,0.4905,0.4905,0.4906,0,0.6155,0.6063,0.5972,0.5903,0.58,0.574,0.5639,0.5582,0.5503,0.5422,0.5385,0.531,0.5236,0.515,0.5103,0.4992,0.4968,0.4935,0.4922,0.4935,0.4939,0.4895,0.4899,0.4901,0.4902,0.4903,0.4904,0,0.609,0.6026,0.5902,0.5796,0.5767,0.5695,0.5602,0.5534,0.5481,0.5379,0.5351,0.5266,0.5164,0.5097,0.4967,0.4934,0.4812,0.4804,0.4843,0.4836,0.4782,0.4786,0.4624,0.4598,0.4714,0.4713,0.4712,0,0.6026,0.5955,0.5841,0.5785,0.573,0.5641,0.5578,0.5518,0.5454,0.5345,0.5289,0.5185,0.5098,0.4937,0.4862,0.4762,0.4748,0.4698,0.4732,0.4747,0.4742,0.4745,0.4736,0.4691,0.469,0.4689,0.4689,0,0.5918,0.589,0.5802,0.5704,0.5631,0.555,0.5469,0.5425,0.5351,0.5281,0.5177,0.511,0.4978,0.4874,0.4767,0.471,0.4685,0.468,0.466,0.467,0.4694,0.4677,0.4823,0.4682,0.4683,0.4683,0.4684,0.4684,0.5848,0.5783,0.5692,0.5596,0.553,0.5455,0.5385,0.5324,0.5237,0.5124,0.5095,0.4985,0.4895,0.475,0.4692,0.4604,0.4609,0.4583,0.4575,0.4568,0.4566,0.4713,0.4585,0.4586,0.4586,0.4586,0.4586,0,0.5734,0.5675,0.5588,0.5476,0.54,0.5388,0.5298,0.5235,0.5139,0.5059,0.4975,0.4855,0.4755,0.4674,0.4571,0.4516,0.4502,0.4491,0.4491,0.4478,0.4569,0.4594,0.4504,0.4504,0.4504,0.4504,0.4504,0.4504,0.5665,0.5553,0.5516,0.537,0.5312,0.5205,0.5154,0.5085,0.502,0.4888,0.4805,0.4755,0.4673,0.4564,0.4472,0.4451,0.4412,0.4402,0.4378,0.4463,0.4472,0.448,0.4503,0.4395,0.4395,0.4294,0.4293,0.4292]},{"header":{"parameterUnit":"m.s-1","parameterCategory":1,"la1":30.2991,"la2":30.254,"lo1":-89.0895,"lo2":-89.0444,"dy":0.0017,"dx":0.0017,"nx":28,"ny":28,"refTime":"2025-09-01T03:00:00:Z","depth":0,"parameterNumber":3,"parameterNumberName":"V-component_of_WINDS"},"data":[0,0,0,0,0,0,0,0,0,0,0,0,0,0,0,0,0,0,0,0,0,0,0,0,0,0,0,0,0,0,0,0,0,0,0,0,0,0,0,0,0,0,0,0,0,0,0,0,0,0,0,0,0,0,0,0,0,0,1.8961,1.8963,0,1.9176,1.9179,1.9181,1.9254,1.9253,1.9253,1.9252,1.9465,1.9472,1.9478,0,0,0,0,0,0,0,0,0,0,0,0,0,1.8606,1.8612,1.896,1.8963,1.8966,1.9176,1.9179,1.9182,1.9254,1.9253,1.9252,1.9251,1.9463,1.9471,1.9479,0,0,0,0,0,0,0,0,0,0,0,0,0,1.8784,1.8614,1.896,1.9028,1.9036,1.9175,1.9179,1.9182,1.9255,1.9253,1.9252,1.9251,1.9461,1.947,1.948,1.9565,0,0,1.9509,1.9514,0,0,0,0,0,0,0,0,1.8774,1.8797,1.9015,1.9023,1.9033,1.9187,1.9132,1.931,1.9255,1.9171,1.9252,1.925,1.9373,1.939,1.9433,1.9575,1.9584,1.951,1.9516,1.952,1.9523,0,0,0,0,0,0,0,1.8762,1.8788,1.9046,1.9018,1.9029,1.9045,1.9069,1.9166,1.9276,1.9179,1.9184,1.9209,1.9378,1.9424,1.9439,1.9587,1.951,1.9519,1.9524,1.9528,1.981,1.9812,0,0,0,0,0,0,1.8739,1.8778,1.9039,1.9052,1.8898,1.9053,1.908,1.9139,1.9276,1.9296,1.921,1.9212,1.9408,1.9427,1.9446,1.9556,1.952,1.9529,1.9535,1.9809,1.9811,1.9812,0,0,0,0,0,0,1.8731,1.8761,1.903,1.8917,1.8952,1.906,1.9126,1.9144,1.919,1.93,1.9319,1.9237,1.9407,1.9433,1.9536,1.9565,1.9534,1.9542,1.9807,1.9809,1.9811,1.9775,0,0,0,0,0,0,1.872,1.8758,1.8793,1.8917,1.8958,1.9117,1.9128,1.9149,1.9207,1.9211,1.933,1.9349,1.9408,1.9521,1.9545,1.9577,1.955,1.9804,1.9808,1.9811,1.9774,1.9776,1.9778,0,0,0,0,0,1.8708,1.8773,1.8795,1.8826,1.9004,1.9119,1.9142,1.9212,1.9209,1.9244,1.9315,1.9345,1.9557,1.9531,1.9559,1.9594,1.9803,1.9807,1.981,1.9774,1.9776,1.9778,0,0,0,0,0,0,1.8647,1.879,1.8816,1.8923,1.9009,1.9131,1.9178,1.9212,1.9298,1.9298,1.9378,1.9404,1.9501,1.9558,1.9526,1.9684,1.9682,1.9691,1.9644,1.9647,1.9649,1.9633,1.9558,0,0,0,0,0,1.8646,1.873,1.8849,1.8932,1.8974,1.9068,1.9121,1.9168,1.9258,1.9294,1.9372,1.9457,1.9543,1.9598,1.9683,1.9783,1.9809,1.9821,1.9823,1.9823,1.9831,1.9888,1.9894,1.9825,1.9825,1.9825,0,0,1.8645,1.8734,1.8781,1.8923,1.8994,1.9077,1.9098,1.9185,1.9247,1.9306,1.9409,1.9469,1.9569,1.9671,1.972,1.9721,1.9856,1.9828,1.9828,1.9835,1.9892,1.9899,1.9905,1.9827,1.9827,1.9826,0,0,1.8686,1.8761,1.884,1.8912,1.9021,1.9084,1.9102,1.922,1.9263,1.9368,1.9415,1.9488,1.9635,1.9705,1.9759,1.9827,1.9857,1.9852,1.9861,1.9916,1.9921,1.9927,1.9951,1.9959,1.9859,1.9859,1.9859,0,1.867,1.88,1.8875,1.896,1.9021,1.9081,1.916,1.9225,1.9355,1.9395,1.9395,1.9582,1.9653,1.9772,1.9789,1.9831,1.9854,1.9839,1.9915,1.9921,1.9927,1.9951,1.996,1.9858,1.9858,1.9858,1.9858,0,1.8775,1.8864,1.8913,1.9041,1.9107,1.9188,1.9274,1.9332,1.9372,1.9434,1.954,1.9628,1.9732,1.9764,1.9803,1.9889,1.9886,1.99,1.9899,1.9931,1.9955,1.9965,1.9856,1.9856,1.9857,1.9857,0,0,1.8783,1.8953,1.897,1.9029,1.9154,1.9223,1.9306,1.9412,1.9459,1.9546,1.9618,1.9741,1.9755,1.9816,1.9864,1.9912,1.9961,1.992,1.9923,1.9925,2.006,2.005,2.0059,1.9981,1.9984,1.9985,2.0052,0,1.8841,1.8996,1.9067,1.9189,1.9272,1.9331,1.9403,1.9487,1.9547,1.9624,1.9688,1.9775,1.9786,1.9824,1.9874,1.9944,1.9989,1.994,2.0047,2.005,2.0021,2.0072,2.0061,2.012,2.0062,2.0064,2.0065,0,1.8929,1.902,1.9152,1.9269,1.9306,1.937,1.9472,1.9546,1.9641,1.9681,1.975,1.9796,1.9884,1.9877,1.9999,1.9964,2.0012,2.0053,2.0057,2.007,2.006,2.0086,2.0141,2.015,2.008,2.0079,2.0078,0,1.8923,1.9078,1.9177,1.9226,1.9364,1.9408,1.9467,1.9561,1.962,1.9708,1.9747,1.9842,1.9895,1.9967,2.0037,2.0025,2.0152,2.0151,2.0187,2.0185,2.0211,2.0209,2.0274,2.0241,2.0241,2.0241,2.024,0,1.8981,1.9059,1.9177,1.9238,1.9327,1.9406,1.9491,1.9554,1.9637,1.971,1.9765,1.9832,1.992,1.9997,2.0052,2.0145,2.0167,2.0201,2.0215,2.0197,2.0193,2.0229,2.0227,2.0243,2.0243,2.0242,2.0242,0,1.8989,1.9071,1.9183,1.9306,1.9338,1.9398,1.9502,1.9562,1.9625,1.9716,1.9742,1.9839,1.9933,2.001,2.0132,2.0169,2.0265,2.0281,2.0234,2.0242,2.0274,2.027,2.0365,2.0382,2.0336,2.0337,2.0337,0,1.9021,1.9083,1.9213,1.9267,1.9326,1.9412,1.9473,1.9553,1.9614,1.9727,1.9774,1.9872,1.9955,2.0101,2.0181,2.0275,2.0293,2.032,2.0307,2.0287,2.0294,2.029,2.0296,2.0321,2.0321,2.0322,2.0322,0,1.9068,1.9106,1.9194,1.9296,1.9367,1.9451,1.9535,1.9575,1.967,1.9735,1.9833,1.9898,2.0024,2.012,2.0222,2.028,2.0316,2.0325,2.0339,2.0321,2.0292,2.0308,2.0238,2.0323,2.0322,2.0322,2.0322,2.0322,1.909,1.9148,1.925,1.9345,1.9417,1.9495,1.9558,1.963,1.9714,1.9825,1.9866,1.9966,2.0059,2.0201,2.0259,2.0337,2.0341,2.036,2.0365,2.0369,2.0367,2.0279,2.0356,2.0356,2.0356,2.0356,2.0356,0,1.9141,1.921,1.9297,1.9415,1.9489,1.9519,1.9614,1.9674,1.9762,1.9848,1.9929,2.0041,2.0135,2.0223,2.0321,2.0366,2.0385,2.0389,2.0387,2.0399,2.0358,2.0337,2.0372,2.0372,2.0372,2.0372,2.0372,2.0372,1.9177,1.9278,1.9327,1.9464,1.9531,1.9632,1.9684,1.9755,1.9824,1.9948,2.0027,2.0085,2.0171,2.0275,2.0362,2.0385,2.0419,2.0418,2.0446,2.0405,2.0402,2.04,2.0381,2.0425,2.0425,2.0481,2.0482,2.0482]}]]